| time (UTC) | temp C | wind direction | speed KPH | gust KPH | rain 1hr cm | rain 24hr cm | rain mn cm | humidity % | barometer mb |
| 20260504014004 | 6 | 0 | 0.0 | 0.0 | 0.00 | 0.00 | 0.00 | 74 | 1012.3 |
| 20260504013004 | 7 | 0 | 0.0 | 0.0 | 0.00 | 0.00 | 0.00 | 71 | 1012.3 |
| 20260504012004 | 7 | 0 | 0.0 | 0.0 | 0.00 | 0.00 | 0.00 | 69 | 1012.2 |
| 20260504011004 | 8 | 0 | 0.0 | 0.0 | 0.00 | 0.00 | 0.00 | 67 | 1012.1 |
| 20260504010004 | 8 | 0 | 0.0 | 3.2 | 0.00 | 0.00 | 0.00 | 64 | 1012.1 |
| 20260504004004 | 10 | 0 | 0.0 | 4.8 | 0.00 | 0.00 | 0.00 | 58 | 1012.0 |
| 20260504003004 | 10 | 214 | 1.6 | 4.8 | 0.00 | 0.00 | 0.00 | 58 | 1012.0 |
| 20260504002004 | 11 | 214 | 0.0 | 8.0 | 0.00 | 0.00 | 0.00 | 55 | 1011.9 |
| 20260503235004 | 11 | 215 | 1.6 | 8.0 | 0.00 | 0.00 | 0.00 | 49 | 1011.7 |
| 20260503234005 | 12 | 213 | 4.8 | 14.5 | 0.00 | 0.00 | 0.00 | 49 | 1011.7 |
| 20260503233004 | 12 | 223 | 3.2 | 16.1 | 0.00 | 0.00 | 0.00 | 48 | 1011.7 |
| 20260503232004 | 12 | 240 | 3.2 | 9.7 | 0.00 | 0.00 | 0.00 | 49 | 1011.8 |
| 20260503231004 | 12 | 264 | 4.8 | 11.3 | 0.00 | 0.00 | 0.00 | 47 | 1011.7 |
| 20260503230004 | 12 | 232 | 4.8 | 12.9 | 0.00 | 0.00 | 0.00 | 46 | 1011.7 |
| 20260503224004 | 12 | 232 | 8.0 | 20.9 | 0.00 | 0.00 | 0.00 | 44 | 1011.7 |
| 20260503222004 | 13 | 220 | 6.4 | 14.5 | 0.00 | 0.00 | 0.00 | 43 | 1011.6 |
| 20260503221004 | 13 | 261 | 6.4 | 22.5 | 0.00 | 0.00 | 0.00 | 44 | 1011.6 |
| 20260503220005 | 13 | 249 | 8.0 | 27.4 | 0.00 | 0.00 | 0.00 | 45 | 1011.7 |
| 20260503215004 | 12 | 220 | 6.4 | 14.5 | 0.00 | 0.00 | 0.00 | 48 | 1011.7 |
| 20260503214004 | 12 | 202 | 6.4 | 14.5 | 0.00 | 0.00 | 0.00 | 45 | 1011.8 |
| 20260503213004 | 12 | 218 | 6.4 | 16.1 | 0.00 | 0.00 | 0.00 | 45 | 1011.7 |
| 20260503212004 | 12 | 206 | 6.4 | 20.9 | 0.00 | 0.00 | 0.00 | 44 | 1011.6 |
| 20260503211004 | 12 | 239 | 6.4 | 19.3 | 0.00 | 0.00 | 0.00 | 43 | 1011.8 |
| 20260503210004 | 13 | 244 | 4.8 | 17.7 | 0.00 | 0.00 | 0.00 | 43 | 1011.7 |
| 20260503205004 | 13 | 221 | 6.4 | 14.5 | 0.00 | 0.00 | 0.00 | 44 | 1011.7 |
| 20260503204004 | 13 | 238 | 6.4 | 17.7 | 0.00 | 0.00 | 0.00 | 46 | 1011.8 |
| 20260503203004 | 12 | 231 | 9.7 | 19.3 | 0.00 | 0.00 | 0.00 | 44 | 1011.9 |
| 20260503201004 | 12 | 216 | 9.7 | 25.7 | 0.00 | 0.00 | 0.00 | 44 | 1012.0 |
| 20260503200004 | 12 | 251 | 9.7 | 25.7 | 0.00 | 0.00 | 0.00 | 44 | 1012.3 |
| 20260503195004 | 12 | 253 | 9.7 | 35.4 | 0.00 | 0.00 | 0.00 | 43 | 1012.4 |
| 20260503194004 | 12 | 249 | 9.7 | 20.9 | 0.00 | 0.00 | 0.00 | 46 | 1012.3 |
| 20260503193004 | 12 | 259 | 8.0 | 29.0 | 0.00 | 0.00 | 0.00 | 44 | 1012.5 |
| 20260503192004 | 12 | 228 | 6.4 | 14.5 | 0.00 | 0.00 | 0.00 | 47 | 1012.5 |
| 20260503190004 | 12 | 242 | 8.0 | 19.3 | 0.00 | 0.00 | 0.00 | 45 | 1012.7 |
| 20260503185004 | 12 | 223 | 4.8 | 17.7 | 0.00 | 0.00 | 0.00 | 44 | 1012.8 |
| 20260503184004 | 12 | 232 | 8.0 | 19.3 | 0.00 | 0.00 | 0.00 | 47 | 1013.0 |
| 20260503183004 | 12 | 227 | 9.7 | 22.5 | 0.00 | 0.00 | 0.00 | 43 | 1013.1 |
| 20260503181004 | 12 | 228 | 8.0 | 19.3 | 0.00 | 0.00 | 0.00 | 45 | 1013.3 |
| 20260503180004 | 12 | 201 | 8.0 | 16.1 | 0.00 | 0.00 | 0.00 | 46 | 1013.1 |
| 20260503175004 | 12 | 235 | 8.0 | 22.5 | 0.00 | 0.00 | 0.00 | 42 | 1013.5 |
| 20260503174004 | 12 | 233 | 9.7 | 20.9 | 0.00 | 0.00 | 0.00 | 45 | 1013.5 |
| 20260503172004 | 12 | 224 | 8.0 | 20.9 | 0.00 | 0.00 | 0.00 | 45 | 1013.6 |
| 20260503151004 | 8 | 269 | 9.7 | 27.4 | 0.00 | 0.00 | 0.00 | 53 | 1014.9 |
| 20260503131004 | 5 | 228 | 6.4 | 16.1 | 0.00 | 0.00 | 0.00 | 78 | 1015.3 |
| 20260503081004 | -1 | 0 | 0.0 | 0.0 | 0.00 | 0.00 | 0.00 | 90 | 1014.7 |
| 20260503072004 | 0 | 0 | 0.0 | 0.0 | 0.00 | 0.00 | 0.00 | 87 | 1014.5 |
| 20260503071004 | 0 | 0 | 0.0 | 0.0 | 0.00 | 0.00 | 0.00 | 86 | 1014.4 |
| 20260503055004 | 1 | 0 | 0.0 | 0.0 | 0.00 | 0.00 | 0.00 | 82 | 1014.7 |
| 20260503054004 | 2 | 0 | 0.0 | 0.0 | 0.00 | 0.00 | 0.00 | 81 | 1014.7 |
| 20260503053004 | 2 | 0 | 0.0 | 0.0 | 0.00 | 0.00 | 0.00 | 81 | 1014.7 |
| 20260503052003 | 2 | 0 | 0.0 | 3.2 | 0.00 | 0.00 | 0.00 | 80 | 1014.8 |
| 20260503051004 | 2 | 0 | 0.0 | 1.6 | 0.00 | 0.00 | 0.00 | 80 | 1014.9 |
| 20260503044004 | 2 | 246 | 1.6 | 6.4 | 0.00 | 0.00 | 0.00 | 79 | 1015.1 |
| 20260503042004 | 2 | 0 | 0.0 | 3.2 | 0.00 | 0.00 | 0.00 | 79 | 1015.1 |
| 20260503041004 | 2 | 246 | 1.6 | 4.8 | 0.00 | 0.00 | 0.00 | 78 | 1015.2 |
| 20260503040005 | 2 | 0 | 0.0 | 4.8 | 0.00 | 0.00 | 0.00 | 78 | 1015.2 |
| 20260503035004 | 2 | 0 | 0.0 | 0.0 | 0.00 | 0.00 | 0.00 | 78 | 1015.2 |
| 20260503034004 | 2 | 0 | 0.0 | 1.6 | 0.00 | 0.00 | 0.00 | 77 | 1015.2 |
| 20260503033004 | 2 | 0 | 0.0 | 0.0 | 0.00 | 0.00 | 0.00 | 77 | 1015.3 |
| 20260503032004 | 2 | 0 | 0.0 | 0.0 | 0.00 | 0.00 | 0.00 | 76 | 1015.3 |
| 20260503031004 | 2 | 0 | 0.0 | 1.6 | 0.00 | 0.00 | 0.00 | 76 | 1015.3 |
| 20260503030004 | 2 | 0 | 0.0 | 3.2 | 0.00 | 0.00 | 0.00 | 76 | 1015.3 |
| 20260503025004 | 2 | 0 | 0.0 | 4.8 | 0.00 | 0.00 | 0.00 | 75 | 1015.4 |
| 20260503024004 | 3 | 245 | 1.6 | 3.2 | 0.00 | 0.00 | 0.00 | 73 | 1015.4 |
| 20260503023004 | 3 | 246 | 1.6 | 4.8 | 0.00 | 0.00 | 0.00 | 73 | 1015.5 |
| 20260503022004 | 3 | 246 | 1.6 | 6.4 | 0.00 | 0.00 | 0.00 | 72 | 1015.5 |
| 20260503021004 | 3 | 246 | 1.6 | 6.4 | 0.00 | 0.00 | 0.00 | 70 | 1015.5 |
| 20260503020004 | 3 | 246 | 0.0 | 6.4 | 0.00 | 0.00 | 0.00 | 69 | 1015.5 |
| 20260503015004 | 3 | 246 | 0.0 | 4.8 | 0.00 | 0.00 | 0.00 | 70 | 1015.3 |